Regional Weather Roundup
Issued by NWS

Home | Current Version | Previous Version | Text Only | Print | Product List | Glossary Off
Versions: 1 2 3 4 5 6 7 8 9 10 11 12 13 14 15 16 17 18 19 20 21 22 23 24 25 26 27 28 29 30 31 32 33 34 35 36 37 38 39 40 41 42 43 44 45 46 47 48 49 50

000
ASUS43 KIND 281509
RWRIN

WEATHER ROUNDUP FOR INDIANA
NATIONAL WEATHER SERVICE INDIANAPOLIS IN
1100 AM EDT FRI JUL 28 2017

NOTE: "FAIR" INDICATES FEW OR NO CLOUDS BELOW 12,000 FEET WITH NO
SIGNIFICANT WEATHER AND/OR OBSTRUCTIONS TO VISIBILITY.

* - STATION DOES NOT REPORT WEATHER SUCH AS PRECIPITATION OR FOG.

+ - STATION NOT QUALITY CONTROLLED BY THE NATIONAL WEATHER SERVICE.
    USE DATA WITH CAUTION...ESPECIALLY DEWPOINT AND RELATIVE
    HUMIDITY OBSERVATIONS.

INZ001>003-010>013-019-020-281600-
NORTHWEST INDIANA

CITY           SKY/WX    TMP DP  RH WIND       PRES   REMARKS
GARY /AIRPORT/ MOSUNNY   75  64  69 NE14      29.98S
KNOX *+        MOSUNNY   72  63  73 NE10      29.96S
LA PORTE +     SUNNY     73  63  72 NE9       29.98S
MICHIGAN CITY+ SUNNY     73  61  64 NE7       29.98S
MONTICELLO +   CLOUDY    71  65  82 NE9       29.93S
RENSSELAER +   CLOUDY    73  63  68 NE9       29.95S
VALPARAISO     MOSUNNY   77  63  61 NE9       29.97S

$$

LMZ046-743>745-281600-
SOUTHERN LAKE MICHIGAN

STATION/POSITION TIME  TEMP    WIND        PRES    WAVE
                       AIR SEA DIR/SP/G            HT
                 (UTC) (F)     (DEG/KT/KT) (MB)    (FT)
BURNS HARBOR     1440   71      60/ 13/ 15 1015.2S
MICHIGAN CITY    1440   68      30/ 12/ 13   N/A
5NW MICH CITY    1500   70 73   50/ 12/ 16   N/A     4

$$

INZ004-005-014>016-021>024-281600-
NORTH CENTRAL INDIANA

CITY           SKY/WX    TMP DP  RH WIND       PRES   REMARKS
ELKHART        SUNNY     73  59  60 NE10G16   29.97S
GOSHEN         CLOUDY    71  61  70 NE10      29.97R
LOGANSPORT +   CLOUDY    70  61  73 NE3       29.94S
PERU/GRISSOM   CLOUDY    71  63  78 NE9       29.93R
ROCHESTER +    CLOUDY    72  63  73 NE7       29.95S
SOUTH BEND     SUNNY     73  62  68 NE12      29.97S
WARSAW +       CLOUDY    68  63  83 NE8       29.96S

$$

INZ006>009-017-018-025>027-281600-
NORTHEAST INDIANA

CITY           SKY/WX    TMP DP  RH WIND       PRES   REMARKS
AUBURN +       CLOUDY    68  61  77 N6        29.96S
FORT WAYNE     CLOUDY    69  61  75 NE10      29.95R
HUNTINGTON +   CLOUDY    67  64  89 N5        29.95R
KENDALLVILLE + CLOUDY    66  62  86 NE6       29.97R

$$

INZ028-029-035-036-043>045-051>053-281600-
WEST CENTRAL INDIANA

CITY           SKY/WX    TMP DP  RH WIND       PRES   REMARKS
GREENCASTLE +  CLOUDY    73  70  88 NE7       29.89S
LAFAYETTE      PTSUNNY   75  67  76 E12       29.91S
TERRE HAUTE    CLOUDY    76  71  85 N7        29.88R

$$

INZ030>032-037>040-046>048-054>057-064-065-281600-
CENTRAL INDIANA

CITY           SKY/WX    TMP DP  RH WIND       PRES   REMARKS
ANDERSON       PTSUNNY   73  66  78 MISG      29.92R
CP ATTERBURY + CLOUDY    73  70  88 NE10      29.88S
COLUMBUS       CLOUDY    73  68  83 NE12      29.86S
FRANKFORT +    CLOUDY    75  68  77 NE10      29.94R
GREENWOOD *+   MOSUNNY  N/A N/A N/A NE12      29.89S
INDIANAPOLIS   MOSUNNY   76  67  73 NE13      29.88S
-EAGLE CREEK   PTSUNNY   76  67  73 N10       29.89R
KOKOMO +       CLOUDY    73  64  73 NE10      29.94S
MT COMFORT *+  MOSUNNY   75  68  78 NE13      29.90S
SHELBYVILLE    MOSUNNY   78  68  71 NE10      29.88R
ZIONSVILLE +   PTSUNNY   73  67  83 NE13      29.93R

$$

INZ033-034-041-042-049-050-058-059-281600-
EAST CENTRAL INDIANA

CITY           SKY/WX    TMP DP  RH WIND       PRES   REMARKS
MUNCIE         CLOUDY    74  65  73 NE10      29.92R
RICHMOND +     CLOUDY    72  66  83 NE10      29.90S

$$

INZ060-061-067>069-081>083-085>088-281600-
SOUTHWEST INDIANA

CITY           SKY/WX    TMP DP  RH WIND       PRES   REMARKS
EVANSVILLE     CLOUDY    76  73  91 N6        29.85S FOG
HUNTINGBURG *+ CLOUDY    78  75  90 NW7       29.84S

$$

INZ062-063-066-070>080-084-089>092-281600-
SOUTH CENTRAL AND SOUTHEAST INDIANA

CITY           SKY/WX    TMP DP  RH WIND       PRES   REMARKS
BEDFORD +      CLOUDY    77  72  83 NE6       29.84S
BLOOMINGTON    CLOUDY    78  70  76 NE10      29.86S
MADISON *+     CLOUDY    73  70  88 NE8       29.86S
NORTH VERNON + CLOUDY    73  70  88 NE7       29.86R

$$





USA.gov is the U.S. government's official web portal to all federal, state and local government web resources and services.